Location: Peebles
(55.6412°N, 3.1714°W)
Time: 08:42:57
(UTC+00:00)

DOVE 4 - Pass Details

Date: 03 October 2023
Orbit: 583 x 785 km, 97.8° (Epoch: 03 December)

Event Time Altitude Azimuth Distance (km) Brightness Sun altitude
Rises 00:54:03 0° 10° (N) 3,123 ? -38.1°
Reaches altitude 10° 00:56:27 10° 1° (N) 2,231 ? -38.1°
Enters shadow 00:58:20 21° 346° (NNW) 1,634 ? -38.1°
